Regional Weather Roundup
Issued by NWS Albany, NY

Home | Current Version | Previous Version | Graphics & Text | Print | Product List | Glossary Off
Versions: 1 2 3 4 5 6 7 8 9 10 11 12 13 14 15 16 17 18 19 20 21 22 23 24 25 26 27 28

000
ASUS41 KALY 171310
RWRALY

NEW YORK STATE HOURLY WEATHER ROUNDUP
NATIONAL WEATHER SERVICE ALBANY NY
800 AM EST FRI NOV 17 2017

NOTE: "FAIR" INDICATES FEW OR NO CLOUDS BELOW 12,000 FEET WITH NO
SIGNIFICANT WEATHER AND/OR NO OBSTRUCTIONS TO VISIBILITY.

NYZ032-033-038>043-046>054-057>066-NYZ062>081-082-084-171400-
EAST


CITY           SKY/WX    TMP DP  RH WIND       PRES   REMARKS
ALBANY         PTSUNNY   33  22  63 NW23G29   30.07R WCI  21
GLENS FALLS    CLOUDY    33  23  66 NW7       30.05R WCI  27
POUGHKEEPSIE   SUNNY     39  24  55 NW6       30.03R WCI  35
NEWBURGH       MOSUNNY   37  27  65 NW21G29   30.04R WCI  27
MONTGOMERY     SUNNY     38  24  57 NW18G28   30.02R WCI  28
WHITE PLAINS   MOSUNNY   39  25  57 NW21G29   30.00R WCI  29
ISLIP          MOSUNNY   42  27  55 NW13G28   29.99R
NEW YORK CITY  MOSUNNY   42  28  57 NW23G31   30.04R
CENTRAL PARK   MOSUNNY   40  25  55 MISG      30.07R
$$

NYZ005>009-017-018-044>046-055-056-171400-
CENTRAL


CITY           SKY/WX    TMP DP  RH WIND       PRES   REMARKS
FULTON         CLOUDY    30  22  72 NW10      30.20R WCI  21
SYRACUSE       CLOUDY    30  23  75 W15       30.19R WCI  19
ROME           CLOUDY    30  24  78 NW18G25   30.15R WCI  18
ELMIRA         MOCLDY    33  23  66 NW10      30.18R WCI  25
BINGHAMTON     CLOUDY    27  22  81 NW14G23   30.09S WCI  16
MONTICELLO     CLOUDY    31  25  78 NW16G26   30.04R WCI  20
$$

NYZ026>034-041>043-087-171400-
NORTH


CITY           SKY/WX    TMP DP  RH WIND       PRES   REMARKS
WATERTOWN      CLOUDY    27  19  72 NW7       30.20R WCI  19
FORT DRUM      NOT AVBL
OGDENSBURG     MOCLDY    27  19  73 NW9       30.17R WCI  17
MASSENA        CLOUDY    27  20  75 W15       30.16R WCI  15
SARANAC LAKE   CLOUDY    21  20  96 W6G17     30.02R WCI  13
PLATTSBURGH    CLOUDY    30  19  63 NW9G29    30.06R WCI  22
$$

NYZ001>004-010>016-019>021-085-171400-
WEST


CITY           SKY/WX    TMP DP  RH WIND       PRES   REMARKS
NIAGARA FALLS  CLOUDY    32  22  66 N7        30.27R WCI  26
BUFFALO        CLOUDY    31  22  69 NW8       30.26R WCI  23
DUNKIRK        CLOUDY    33  25  72 N8        30.27R WCI  26
JAMESTOWN      CLOUDY    28  23  81 NW7       30.21R WCI  21
WELLSVILLE     CLOUDY    29  21  72 NW8       30.17R WCI  21
ROCHESTER      PTCLDY    31  22  69 NW14      30.25R WCI  21
PENN YAN       PTCLDY    30  20  66 NW7       30.20R WCI  23
$$

             KEY
       WCI = WIND CHILL INDEX
       VSB = VISIBILITY
       HX  = HEAT INDEX
$$




USA.gov is the U.S. government's official web portal to all federal, state and local government web resources and services.